Temperature
18 18 18 18 18 18 18 19 19 18 18 18 18 18 18 18 18 18 18 18 18 18 18 18 18 18 18 18 18 18 18 18 18 18 18 17 17 17 17 17 17 17 17
18 18 18 18 18 18 19 19 19 18 18 18 19 19 18 18 18 18 18 18 18 18 18 18 18 18 18 18 18 18 18 18 18 18 17 17 17 17 17 17 17 17 17
18 18 18 18 18 18 19 19 19 18 18 18 18 18 18 18 18 18 18 18 18 18 18 18 18 18 18 18 18 18 18 18 18 17 17 17 17 17 17 17 17 17 17
18 18 18 18 18 18 18 18 18 18 18 18 18 18 18 18 18 18 18 18 18 18 18 18 18 18 18 18 18 18 18 18 18 17 17 17 16 17 17 17 17 17 17
18 18 18 18 18 18 18 18 18 18 18 18 18 18 18 18 18 18 18 18 18 18 18 18 18 18 18 18 18 18 18 18 17 17 17 16 16 17 17 17 17 17 17
19 18 18 18 18 18 18 18 18 18 18 18 18 18 18 18 18 18 18 18 18 18 18 18 18 18 18 18 18 18 18 17 17 17 17 16 16 17 17 17 17 17 17
19 18 18 18 18 18 18 18 18 18 18 18 18 18 18 18 18 18 18 18 18 18 18 18 18 18 18 18 18 18 18 17 17 17 16 16 17 17 17 17 17 17 17
19 19 18 18 18 18 18 18 18 18 18 18 18 18 18 18 18 18 18 18 18 18 18 18 18 18 18 18 18 18 18 17 17 17 17 16 17 17 17 17 17 17 16
19 19 18 18 18 18 18 18 18 18 18 18 18 18 18 18 18 18 18 18 18 18 18 18 17 17 18 18 18 18 17 17 17 17 17 16 17 17 17 17 17 16 16
19 18 18 18 18 18 18 18 18 18 18 18 18 18 18 18 18 18 18 18 18 18 18 18 18 17 18 18 18 17 17 17 17 17 17 17 17 17 17 17 17 17 16
18 18 18 18 18 18 18 18 18 18 18 18 18 18 17 17 17 17 17 18 18 18 18 18 18 18 18 18 18 17 17 17 18 17 17 17 17 17 17 17 17 17 17
19 19 18 18 18 18 18 18 18 17 17 17 17 17 17 17 17 17 18 18 18 18 18 18 18 17 17 17 18 18 18 18 18 17 17 17 17 17 17 17 17 17 16
19 19 19 18 18 18 18 18 18 18 17 17 17 17 17 17 17 17 17 17 17 17 17 17 17 17 17 17 18 18 18 18 18 17 17 17 17 17 17 17 17 17 17
19 19 19 18 18 18 18 18 18 18 18 18 17 17 17 17 17 17 17 17 17 17 17 17 17 17 17 17 17 17 17 18 18 17 17 17 17 17 17 17 17 17 17
19 19 18 18 18 18 18 18 18 18 18 18 18 17 17 17 17 17 17 17 17 17 17 17 17 17 17 17 17 17 17 17 17 17 17 17 17 17 17 17 17 17 17
19 19 19 18 18 18 18 18 18 18 18 18 18 18 17 17 17 17 17 17 17 17 17 17 17 17 17 17 17 17 17 17 17 17 17 17 17 17 17 17 17 17 17
19 19 19 19 19 19 18 18 18 18 18 18 18 18 18 17 17 17 17 17 17 17 17 17 17 17 17 17 17 17 18 17 17 17 17 17 17 17 17 17 17 17 17
20 19 19 19 19 19 19 18 18 18 18 18 18 18 18 18 18 18 18 18 17 17 17 17 17 17 17 18 18 18 18 18 17 17 17 17 17 17 17 17 17 17 17
20 20 20 19 19 19 19 18 18 18 18 18 18 18 18 18 18 18 18 18 17 17 17 18 18 18 18 18 18 18 18 18 18 18 17 17 17 17 17 17 17 17 17
20 20 20 20 19 19 19 19 18 18 18 18 18 18 18 18 18 18 18 17 17 18 17 18 17 17 17 17 18 18 18 18 18 18 18 18 17 17 17 17 17 17 17
20 20 20 20 20 19 19 19 18 18 18 18 18 18 18 18 18 18 18 18 18 18 17 17 17 17 17 17 18 18 19 18 18 18 18 18 18 17 17 17 17 17 17
21 21 20 20 20 20 19 19 19 19 18 18 18 18 18 18 18 18 18 18 18 18 18 18 17 18 18 18 18 18 19 19 18 19 18 18 18 18 17 17 17 17 17
21 21 21 21 20 20 20 19 19 19 19 18 18 18 18 18 18 18 18 18 18 18 18 18 18 17 18 18 18 18 18 19 19 19 18 18 18 18 18 17 17 17 17
22 22 21 21 21 21 20 19 19 19 19 19 19 19 18 18 18 18 18 18 18 18 18 18 18 17 17 18 18 17 17 18 18 19 19 18 18 18 18 18 18 17 17
22 22 21 21 21 21 20 20 19 19 19 19 19 19 18 18 18 18 18 18 18 18 18 18 18 17 17 17 17 17 17 17 17 18 18 18 18 18 18 17 17 17 17
22 22 21 21 21 21 21 20 20 19 19 19 19 19 18 18 18 18 18 18 18 18 18 18 18 17 17 17 17 17 17 17 17 17 17 18 18 18 17 17 17 17 17
Wind_Speed
7 10 12 12 14 15 15 16 16 15 15 15 15 16 16 17 16 16 17 17 17 18 18 18 18 18 19 19 19 18 18 18 18 17 16 15 16 16 16 15 14 16 16
9 12 13 13 14 14 15 15 15 15 15 15 15 16 16 16 16 16 16 17 17 18 18 18 18 18 18 18 18 18 17 17 17 17 16 15 15 15 14 12 12 16 16
10 12 13 13 14 14 15 15 15 15 15 15 15 15 15 16 16 16 16 17 17 17 18 18 18 18 18 18 18 17 17 16 15 14 14 15 15 14 15 15 16 16 16
10 11 14 14 14 14 14 14 15 15 15 15 15 15 15 16 16 16 16 16 17 17 17 18 18 18 17 17 16 16 16 15 12 11 10 13 15 15 15 15 16 15 15
11 12 14 13 14 14 14 14 14 14 15 15 14 15 16 16 15 16 16 16 17 17 17 17 17 17 16 16 15 15 14 13 9 7 11 12 14 15 14 15 15 14 14
11 13 15 12 13 14 14 14 14 15 15 15 14 15 16 15 16 16 16 16 17 17 16 16 16 15 15 14 14 14 12 9 8 10 11 11 13 14 13 14 14 14 13
11 12 15 13 13 14 14 14 14 15 15 15 15 15 15 15 15 16 16 16 16 16 15 15 15 14 14 13 13 12 9 5 7 10 10 11 13 13 12 13 13 13 13
10 12 14 14 13 13 13 14 14 15 15 15 15 15 15 15 15 15 15 15 15 14 14 14 14 13 13 12 11 10 7 3 8 9 10 11 13 12 12 12 12 12 12
10 10 11 12 12 13 13 13 14 14 14 14 14 15 15 15 15 14 14 14 14 13 13 13 12 12 11 10 10 8 5 2 5 8 9 10 13 11 11 11 11 12 11
8 8 9 10 10 11 12 13 13 13 13 14 14 14 14 14 14 13 13 13 12 12 12 12 11 11 10 9 8 7 5 5 5 7 8 11 12 11 11 11 11 11 11
8 7 7 8 8 9 10 11 12 12 11 11 12 10 8 10 11 11 13 12 10 10 10 10 10 9 9 9 8 7 6 3 6 5 7 12 11 10 10 10 10 10 10
8 7 6 7 7 8 8 8 7 9 8 8 8 7 7 8 7 10 13 10 10 10 9 9 8 8 6 7 9 8 3 4 4 5 8 12 10 10 9 9 9 9 9
7 7 7 6 4 6 6 5 5 6 6 7 7 7 6 6 7 7 7 9 8 7 6 7 6 3 3 4 2 3 3 2 3 5 9 10 9 9 9 9 9 9 9
7 7 6 6 5 4 4 5 5 5 5 5 6 4 5 4 4 5 3 5 5 4 3 3 3 3 2 2 2 2 2 1 3 4 7 9 9 9 9 9 9 9 9
7 7 6 5 5 5 4 3 4 4 4 5 4 4 3 3 3 4 3 2 2 3 3 2 2 2 1 1 1 1 1 2 2 3 6 9 9 9 9 10 10 10 10
8 7 7 6 5 4 4 3 3 3 3 3 3 4 2 2 3 2 2 1 2 1 2 1 2 1 1 1 1 1 1 2 3 3 4 8 10 10 10 10 10 11 11
8 7 7 6 5 5 4 4 3 3 4 3 4 4 3 2 3 2 2 2 2 2 2 1 0 0 1 2 2 2 2 2 2 3 4 4 7 11 12 11 11 11 12
8 8 8 6 6 6 4 3 3 3 3 3 3 4 3 2 3 2 2 2 2 2 2 1 2 1 1 2 2 2 2 2 4 4 5 5 5 6 11 13 12 12 12
9 9 9 8 7 7 5 4 3 2 2 2 2 2 3 3 3 3 2 1 2 2 2 2 0 1 1 2 3 3 3 3 3 4 4 5 5 6 6 11 14 13 13
10 10 9 9 8 7 6 5 4 3 3 3 3 2 3 3 3 3 3 3 3 2 2 1 2 2 3 3 4 2 3 3 4 4 5 5 5 6 7 6 8 12 15
11 10 10 10 9 7 6 5 5 4 4 4 4 4 4 4 3 4 3 2 3 3 3 3 3 3 3 2 4 3 4 5 4 4 4 4 5 5 5 6 7 7 9
12 12 11 11 10 10 7 5 4 3 3 3 3 3 4 5 5 5 4 4 4 3 4 4 4 4 3 2 3 4 3 3 3 4 4 5 4 5 5 7 7 7 8
13 13 12 12 11 10 9 7 5 5 4 4 4 4 4 5 5 5 5 5 4 4 4 4 4 5 4 3 3 3 3 2 2 2 2 3 3 4 5 5 7 7 9
13 13 12 12 12 10 10 9 8 7 5 5 4 3 4 4 5 5 5 5 5 4 4 5 4 4 5 4 3 3 4 4 3 3 3 2 3 4 5 4 5 5 6
12 12 11 11 11 10 10 9 9 8 6 5 4 4 4 4 5 5 5 5 5 4 4 5 4 5 4 5 4 3 4 4 5 5 4 3 3 2 2 3 3 3 3
11 11 11 11 10 10 10 10 9 8 7 6 5 4 4 3 4 4 5 5 5 4 5 5 5 6 5 5 4 4 4 4 4 4 5 5 4 2 2 2 2 3 3
Wind_Direction
82 85 83 82 86 88 88 90 93 98 100 101 103 107 108 109 108 108 109 109 109 107 109 112 112 112 111 111 112 113 113 113 112 113 112 112 113 115 118 124 125 112 114
91 90 86 84 87 88 89 90 91 96 99 99 103 107 110 111 111 109 109 110 109 109 110 111 113 112 111 111 111 112 114 115 115 117 119 117 115 116 116 112 103 112 118
91 95 93 84 86 88 90 91 91 94 96 98 104 107 109 111 111 110 109 110 109 110 110 111 111 110 109 109 109 111 114 115 118 126 135 122 116 115 113 109 108 116 117
95 97 89 86 87 88 89 92 93 95 97 97 101 106 109 110 111 111 110 110 111 110 110 111 110 109 108 108 108 109 111 114 124 146 129 116 117 115 116 116 117 118 118
94 94 92 88 88 88 88 88 91 93 96 96 98 104 107 108 109 109 109 110 110 109 109 110 110 110 109 108 109 111 113 119 137 136 105 109 112 118 121 121 121 122 122
99 97 94 90 89 89 87 88 91 94 95 93 94 101 105 107 108 106 106 107 108 108 108 108 108 110 110 109 111 113 119 137 155 109 111 113 113 121 123 123 123 123 124
100 98 97 91 90 88 86 87 90 93 91 89 90 97 101 104 104 105 106 105 105 106 106 107 108 108 108 109 111 115 121 140 115 110 113 109 110 121 124 125 126 125 125
103 102 101 98 92 90 89 88 88 90 91 90 89 95 99 100 102 103 103 104 104 104 104 105 108 110 110 110 114 119 131 174 118 111 111 111 115 125 129 130 130 130 128
104 105 109 112 107 101 92 90 91 92 94 92 90 94 98 98 98 100 102 103 103 103 103 105 108 111 113 115 117 120 128 236 117 113 117 114 124 132 133 134 134 135 136
106 105 107 102 106 112 107 98 95 93 94 96 93 95 100 106 105 108 110 103 105 106 106 108 110 111 114 117 122 133 164 209 120 118 116 119 133 140 142 142 141 142 142
112 108 108 110 113 110 106 110 112 106 105 112 106 106 119 114 112 117 99 107 111 110 109 110 113 120 129 133 135 157 195 157 116 107 108 121 143 148 151 151 151 153 154
129 124 115 111 116 111 108 113 117 113 110 105 105 107 104 97 97 103 111 109 114 116 118 117 130 158 178 137 148 184 163 127 122 120 117 132 149 157 161 162 162 164 164
139 134 126 118 106 109 113 114 107 107 112 112 108 110 104 110 115 116 125 129 128 140 131 134 164 137 108 90 107 131 106 115 130 124 127 145 159 167 172 174 176 176 174
146 141 133 132 127 110 105 114 123 123 123 115 113 117 112 100 100 102 114 118 133 121 104 114 106 97 85 98 104 109 123 127 124 118 132 155 169 177 182 184 186 186 186
155 152 145 145 139 136 126 132 124 119 120 116 121 115 114 116 105 102 96 97 112 112 134 112 100 107 130 132 117 130 120 109 120 149 144 164 181 190 194 193 193 194 195
164 160 157 162 155 153 154 148 133 131 127 123 126 117 115 107 106 113 128 122 105 118 82 90 111 136 191 130 173 160 219 179 158 180 172 171 186 196 203 203 203 205 205
167 163 167 172 169 171 173 170 161 154 150 141 131 134 146 150 150 163 146 171 134 137 142 171 115 236 222 202 203 210 209 205 182 193 207 198 186 196 205 210 211 213 215
177 175 181 184 178 181 184 192 184 174 155 153 152 154 161 172 192 213 189 186 163 199 199 207 234 245 278 267 235 233 218 208 211 206 211 208 205 203 199 205 214 219 222
189 187 188 192 187 186 183 190 201 191 189 188 180 181 176 193 205 225 223 185 215 226 233 259 167 279 274 275 256 223 234 229 225 221 222 219 216 224 218 193 207 218 225
194 196 196 195 194 190 189 190 204 208 206 210 204 206 215 214 217 231 223 213 231 232 236 256 272 268 274 273 280 272 247 237 234 228 233 225 220 225 230 223 212 215 218
196 197 199 201 194 196 199 204 205 206 213 213 209 206 215 225 225 233 245 219 236 235 250 254 254 246 256 274 273 268 254 227 221 224 227 238 224 223 231 233 238 237 216
196 199 200 202 201 201 200 207 216 219 224 222 226 209 225 230 233 228 231 237 231 239 243 247 249 270 270 257 277 284 271 226 207 218 213 217 235 230 234 233 239 242 252
200 200 201 202 203 205 204 207 210 204 218 219 220 222 228 234 236 246 237 243 245 244 239 245 249 254 269 267 261 277 285 292 291 207 224 231 240 250 252 251 243 241 243
201 200 201 200 201 200 203 213 217 221 226 230 229 224 226 232 238 239 241 240 245 247 243 250 242 255 261 265 255 256 271 297 285 267 229 217 235 246 257 265 263 249 248
201 199 198 199 200 199 202 208 217 228 229 229 226 228 239 231 233 239 243 242 244 252 254 260 261 255 253 259 262 257 253 251 252 269 278 282 272 263 258 257 274 276 270
198 198 196 194 198 199 202 207 214 224 230 235 233 235 235 230 232 231 239 240 242 251 254 254 253 246 252 259 261 257 257 261 262 266 274 283 286 289 296 302 295 284 283
Height
1525 1524 1522 1521 1521 1520 1520 1520 1520 1521 1521 1521 1522 1523 1524 1525 1527 1528 1529 1530 1531 1533 1534 1536 1537 1538 1540 1541 1543 1544 1546 1547 1549 1551 1552 1553 1554 1556 1556 1558 1559 1560 1561
1528 1527 1525 1525 1524 1524 1524 1524 1524 1524 1524 1525 1525 1526 1527 1528 1530 1531 1532 1533 1534 1536 1537 1538 1540 1541 1543 1544 1546 1547 1548 1550 1552 1553 1554 1556 1557 1558 1559 1560 1561 1562 1563
1530 1530 1529 1528 1528 1528 1527 1527 1527 1527 1528 1528 1529 1530 1531 1532 1533 1534 1535 1536 1537 1539 1540 1541 1543 1544 1545 1547 1548 1550 1551 1553 1554 1556 1557 1559 1559 1560 1561 1562 1563 1564 1565
1533 1533 1532 1531 1531 1531 1531 1531 1531 1531 1531 1532 1532 1533 1534 1535 1536 1537 1538 1539 1540 1542 1543 1544 1546 1547 1548 1550 1551 1553 1554 1555 1557 1558 1561 1562 1562 1562 1563 1564 1565 1566 1567
1536 1536 1534 1534 1534 1534 1534 1534 1534 1534 1535 1535 1535 1536 1537 1538 1539 1540 1541 1542 1543 1545 1546 1547 1548 1550 1552 1553 1554 1556 1557 1558 1559 1562 1563 1564 1564 1564 1565 1566 1567 1568 1569
1539 1539 1537 1537 1538 1537 1537 1538 1537 1538 1538 1538 1538 1539 1540 1541 1542 1543 1544 1545 1546 1548 1549 1550 1552 1553 1554 1556 1557 1558 1559 1561 1563 1565 1565 1566 1566 1566 1567 1568 1569 1570 1571
1542 1542 1541 1540 1540 1541 1541 1541 1541 1541 1542 1541 1541 1541 1543 1544 1545 1546 1547 1548 1550 1551 1552 1553 1555 1556 1557 1558 1559 1560 1562 1563 1566 1567 1567 1568 1568 1568 1569 1570 1571 1572 1573
1544 1545 1544 1543 1543 1544 1544 1544 1544 1544 1545 1545 1545 1545 1546 1546 1548 1549 1550 1551 1553 1554 1555 1556 1557 1559 1560 1561 1562 1563 1564 1565 1568 1569 1569 1569 1569 1570 1571 1571 1572 1573 1574
1547 1548 1548 1548 1547 1547 1547 1547 1548 1548 1548 1548 1548 1549 1549 1550 1551 1552 1553 1554 1555 1556 1558 1559 1560 1561 1562 1563 1564 1565 1566 1567 1571 1571 1571 1571 1571 1571 1572 1573 1574 1575 1576
1549 1550 1551 1551 1551 1551 1551 1550 1550 1551 1551 1551 1552 1552 1553 1554 1554 1555 1556 1557 1558 1559 1560 1561 1562 1564 1565 1565 1566 1567 1568 1569 1572 1573 1573 1572 1572 1572 1573 1574 1575 1576 1577
1551 1551 1553 1553 1554 1554 1555 1554 1554 1554 1554 1555 1555 1555 1556 1558 1559 1559 1559 1560 1561 1562 1563 1564 1565 1566 1567 1567 1568 1569 1570 1572 1574 1574 1573 1573 1573 1573 1574 1575 1576 1577 1577
1553 1554 1554 1555 1556 1557 1557 1557 1558 1558 1557 1558 1558 1559 1560 1560 1561 1562 1562 1562 1563 1564 1565 1566 1567 1568 1569 1571 1570 1571 1573 1574 1574 1574 1574 1573 1574 1574 1574 1575 1576 1577 1578
1554 1555 1556 1556 1557 1559 1559 1559 1560 1560 1560 1560 1560 1561 1562 1563 1564 1564 1565 1565 1566 1567 1568 1568 1570 1571 1572 1572 1573 1574 1574 1574 1575 1575 1574 1574 1574 1574 1575 1576 1576 1577 1578
1556 1557 1557 1557 1558 1558 1560 1561 1561 1562 1562 1563 1563 1564 1564 1565 1566 1567 1567 1568 1569 1569 1570 1571 1571 1572 1573 1573 1574 1574 1574 1575 1575 1575 1574 1574 1574 1574 1574 1575 1576 1577 1578
1556 1557 1558 1558 1559 1560 1560 1561 1563 1563 1564 1564 1565 1565 1566 1567 1567 1568 1568 1569 1570 1571 1571 1571 1572 1572 1573 1574 1574 1575 1575 1575 1575 1575 1574 1573 1573 1574 1574 1575 1576 1577 1578
1557 1558 1559 1559 1560 1560 1561 1562 1563 1564 1564 1566 1566 1566 1567 1568 1568 1569 1569 1569 1571 1571 1572 1572 1572 1572 1573 1574 1574 1574 1574 1575 1575 1575 1575 1574 1573 1574 1574 1575 1575 1576 1577
1557 1558 1559 1560 1561 1561 1562 1564 1565 1565 1566 1567 1567 1567 1567 1568 1568 1569 1570 1570 1571 1571 1571 1572 1572 1572 1573 1573 1573 1573 1574 1574 1574 1574 1574 1574 1574 1573 1573 1574 1574 1575 1575
1557 1558 1559 1561 1561 1562 1563 1564 1565 1566 1567 1568 1568 1568 1568 1568 1569 1569 1570 1571 1571 1571 1572 1572 1572 1573 1573 1573 1573 1573 1573 1572 1573 1573 1573 1573 1573 1573 1572 1572 1573 1573 1573
1556 1557 1558 1560 1561 1562 1563 1564 1565 1566 1567 1568 1568 1569 1569 1569 1569 1569 1570 1570 1570 1571 1571 1572 1572 1572 1572 1572 1572 1571 1572 1571 1571 1572 1572 1572 1571 1571 1572 1571 1571 1571 1571
1554 1555 1557 1558 1560 1561 1563 1564 1565 1566 1567 1567 1568 1568 1568 1569 1569 1569 1569 1569 1570 1570 1570 1570 1570 1570 1570 1570 1571 1571 1570 1570 1570 1570 1570 1570 1570 1569 1570 1570 1569 1569 1569
1552 1553 1555 1557 1559 1560 1562 1563 1564 1565 1566 1567 1567 1567 1568 1568 1568 1568 1569 1568 1568 1569 1569 1569 1569 1569 1569 1569 1569 1569 1569 1569 1568 1567 1568 1568 1568 1568 1567 1567 1567 1567 1567
1549 1551 1553 1555 1557 1559 1560 1562 1563 1564 1565 1566 1566 1566 1567 1567 1567 1567 1567 1567 1567 1567 1567 1567 1567 1568 1568 1568 1568 1568 1567 1568 1566 1566 1566 1566 1566 1566 1566 1565 1564 1564 1564
1547 1549 1551 1553 1555 1557 1559 1560 1561 1562 1563 1564 1564 1565 1565 1565 1566 1565 1565 1565 1566 1566 1566 1565 1565 1565 1566 1566 1566 1566 1566 1565 1565 1565 1564 1564 1564 1564 1563 1563 1562 1561 1560
1544 1546 1548 1550 1552 1554 1556 1558 1560 1561 1562 1562 1562 1563 1563 1563 1563 1563 1563 1563 1563 1564 1563 1563 1563 1563 1563 1564 1564 1563 1564 1564 1564 1563 1563 1562 1561 1561 1561 1560 1560 1559 1558
1542 1544 1546 1548 1550 1552 1554 1555 1557 1558 1559 1560 1560 1560 1560 1561 1561 1561 1561 1561 1560 1560 1560 1560 1560 1560 1560 1561 1561 1561 1561 1561 1561 1561 1560 1560 1560 1559 1558 1557 1557 1556 1556
1538 1541 1543 1545 1547 1549 1551 1552 1554 1555 1556 1557 1557 1558 1558 1559 1559 1558 1558 1558 1557 1557 1557 1557 1557 1557 1557 1557 1557 1558 1559 1559 1559 1558 1557 1557 1557 1556 1556 1555 1554 1554 1553